This demonstration page uses our WeatherBlox Daily Observations layout. Learn more.

Hourly Observations for December 15, 2019

Temp ( °F °C ) Dew Point ( °F °C ) Humidity (%) Winds ( mph kmh ) Pressure ( in mb ) Visibility ( mi km ) Precip ( " mm )
12:54 am 00:54 Cloudy 18 -7.8 9 -12.8 68 68 NNE 7 11 30.09 1019 10 16.09344 0 0
1:54 am 01:54 Cloudy 18 -7.8 10 -12.2 71 71 NE 6 9 30.09 1019 10 16.09344 0 0
2:54 am 02:54 Cloudy 18 -7.8 10 -12.2 71 71 NE 8 13 30.09 1019 10 16.09344 0 0
3:54 am 03:54 Cloudy 18 -7.8 11 -11.7 74 74 NE 8 13 30.06 1018 10 16.09344 0 0
4:54 am 04:54 Cloudy 18 -7.8 11 -11.7 74 74 NE 9 15 30.06 1018 10 16.09344 0 0
5:43 am 05:43 Cloudy with Light Snow 18 -7.8 12 -11.1 77 77 NE 3 6 30.18 1022 2 3.218688 0.01 0.254
5:52 am 05:52 Cloudy with Light Snow 18 -8 12 -11 79 79 NE 5 7 30.18 1022 1.75 2.816352 0.01 0.254
5:54 am 05:54 Cloudy with Light Snow 18 -7.8 12 -11.1 77 77 NE 5 7 30.12 1020 1.5 2.414016 0.01 0.254
6:16 am 06:16 Mostly Cloudy with Scattered Snow Showers 17 -8.3 13 -10.6 84 84 NE 5 7 30.18 1022 1 1.609344 0.01 0.254
6:54 am 06:54 Cloudy with Light Snow 17 -8.3 13 -10.6 84 84 NE 8 13 30.12 1020 1.25 2.01168 0.03 0.762
7:32 am 07:32 Cloudy with Light Snow 17 -8.3 13 -10.6 84 84 ENE 6 9 30.18 1022 1.5 2.414016 0.01 0.254
7:54 am 07:54 Cloudy with Light Snow 17 -8.3 13 -10.6 84 84 NE 7 11 30.09 1019 2 3.218688 0.02 0.508
8:02 am 08:02 Cloudy with Light Snow 17 -8.3 13 -10.6 84 84 ENE 8 13 30.18 1022 1.75 2.816352 0.001 0.001
8:29 am 08:29 Cloudy with Light Snow 18 -7.8 13 -10.6 81 81 ENE 6 9 30.18 1022 2 3.218688 0.001 0.001
8:45 am 08:45 Cloudy with Light Snow 18 -7.8 13 -10.6 81 81 ENE 7 11 30.18 1022 1.5 2.414016 0.001 0.001
8:54 am 08:54 Cloudy with Light Snow 18 -7.8 13 -10.6 81 81 ENE 6 9 30.09 1019 1 1.609344 0.001 0.001
9:37 am 09:37 Cloudy with Light Snow 18 -7.8 14 -10 84 84 E 7 11 30.18 1022 2 3.218688 0.02 0.508
9:42 am 09:42 Cloudy with Light Snow 18 -7.8 14 -10 84 84 NE 6 9 30.18 1022 1.75 2.816352 0.02 0.508
9:54 am 09:54 Cloudy with Light Snow 19 -7.2 14 -10 81 81 NE 8 13 30.12 1020 1.25 2.01168 0.02 0.508
10:07 am 10:07 Cloudy with Light Snow 19 -7.2 14 -10 81 81 NE 8 13 30.15 1021 1.75 2.816352 0.001 0.001
10:14 am 10:14 Cloudy with Light Snow 19 -7.2 14 -10 81 81 NE 7 11 30.15 1021 2 3.218688 0.001 0.001
10:18 am 10:18 Cloudy with Light Snow 19 -7.2 14 -10 81 81 NE 7 11 30.15 1021 1.5 2.414016 0.001 0.001
10:54 am 10:54 Cloudy with Light Snow 19 -7.2 14 -10 81 81 NE 6 9 30.12 1020 1.25 2.01168 0.01 0.254
11:16 am 11:16 Cloudy with Light Snow 19 -7.2 14 -10 81 81 ENE 7 11 30.15 1021 2.5 4.02336 0.001 0.001
11:35 am 11:35 Cloudy with Light Snow 19 -7.2 14 -10 81 81 ENE 6 9 30.15 1021 1.25 2.01168 0.01 0.254
11:44 am 11:44 Cloudy with Light Snow 19 -7.2 14 -10 81 81 E 3 6 30.15 1021 1 1.609344 0.01 0.254
11:54 am 11:54 Cloudy with Light Snow 19 -7.2 14 -10 81 81 E 3 6 30.09 1019 1 1.609344 0.01 0.254
12:15 pm 12:15 Cloudy with Light Snow 20 -6.7 14 -10 78 78 ENE 5 7 30.15 1021 2 3.218688 0.01 0.254
12:29 pm 12:29 Cloudy with Light Snow 20 -6.7 14 -10 78 78 ENE 5 7 30.15 1021 3 4.828032 0.01 0.254
12:54 pm 12:54 Cloudy with Light Snow 20 -6.7 14 -10 78 78 ENE 5 7 30.09 1019 6 9.656064 0.01 0.254
1:54 pm 13:54 Cloudy with Haze 20 -6.7 15 -9.4 81 81 E 5 7 30.06 1018 6 9.656064 0.001 0.001
2:23 pm 14:23 Cloudy 20 -6.7 15 -9.4 81 81 NNE 5 7 30.12 1020 8 12.874752 0 0
2:34 pm 14:34 Cloudy 21 -6.1 16 -8.9 81 81 NE 5 7 30.12 1020 8 12.874752 0 0
2:54 pm 14:54 Cloudy 20 -6.7 15 -9.4 81 81 ENE 3 6 30.06 1018 10 16.09344 0 0
3:42 pm 15:42 Cloudy 21 -6.1 16 -8.9 81 81 N 7 11 30.12 1020 10 16.09344 0 0
3:54 pm 15:54 Cloudy 20 -6.7 15 -9.4 81 81 undefined N/A 30.06 1018 10 16.09344 0 0
4:54 pm 16:54 Cloudy 20 -6.7 16 -8.9 85 85 NNE 6 9 30.09 1019 10 16.09344 0 0
5:54 pm 17:54 Cloudy 20 -6.7 16 -8.9 85 85 NNE 3 6 30.12 1020 10 16.09344 0 0
6:21 pm 18:21 Cloudy 20 -6.7 16 -8.9 85 85 NE 3 6 30.18 1022 10 16.09344 0 0
6:54 pm 18:54 Cloudy 20 -6.7 16 -8.9 85 85 NNE 3 6 30.15 1021 10 16.09344 0 0
7:16 pm 19:16 Cloudy 20 -6.7 16 -8.9 85 85 NNE 5 7 30.18 1022 10 16.09344 0 0
7:54 pm 19:54 Cloudy 20 -6.7 16 -8.9 85 85 NNE 3 6 30.15 1021 10 16.09344 0 0
8:20 pm 20:20 Cloudy 20 -6.7 16 -8.9 85 85 Calm 30.18 1022 10 16.09344 0 0
8:36 pm 20:36 Cloudy 20 -6.7 16 -8.9 85 85 Calm 30.21 1023 9 14.484096 0 0
8:46 pm 20:46 Cloudy 20 -6.7 16 -8.9 85 85 Calm 30.18 1022 9 14.484096 0 0
8:54 pm 20:54 Cloudy 20 -6.7 17 -8.3 89 89 Calm 30.15 1021 9 14.484096 0 0
9:21 pm 21:21 Cloudy 20 -6.7 16 -8.9 85 85 Calm 30.21 1023 9 14.484096 0 0
9:30 pm 21:30 Cloudy 20 -6.7 16 -8.9 85 85 Calm 30.21 1023 9 14.484096 0 0
9:54 pm 21:54 Cloudy 21 -6.1 17 -8.3 85 85 Calm 30.15 1021 8 12.874752 0 0
10:23 pm 22:23 Cloudy 20 -6.7 16 -8.9 85 85 NNW 5 7 30.21 1023 8 12.874752 0 0
10:30 pm 22:30 Cloudy 20 -6.7 17 -8.3 89 89 NNW 3 6 30.21 1023 8 12.874752 0 0
10:54 pm 22:54 Cloudy 20 -6.7 16 -8.9 85 85 WNW 5 7 30.18 1022 8 12.874752 0 0
11:04 pm 23:04 Cloudy 20 -6.7 16 -8.9 85 85 WNW 5 7 30.21 1023 8 12.874752 0 0
11:45 pm 23:45 Cloudy 19 -7.2 16 -8.9 88 88 NNW 6 9 30.24 1024 8 12.874752 0 0
11:54 pm 23:54 Cloudy 20 -6.7 16 -8.9 85 85 NW 3 6 30.18 1022 8 12.874752 0 0

Powered by AerisWeather